| time (UTC) | temp F | wind direction | speed knots | gust knots | rain 1hr in | rain 24hr in | rain mn in | humidity % | barometer mb |
| 20260508101528 | 40 | 0.0 | 0.0 | 0.00 | 0.04 | 0.00 | 75 | 1014.0 | |
| 20260508100027 | 40 | 0.0 | 0.0 | 0.00 | 0.04 | 0.00 | 77 | 1013.8 | |
| 20260508094523 | 41 | 0.0 | 0.0 | 0.00 | 0.05 | 0.00 | 75 | 1013.6 | |
| 20260508093022 | 42 | 0.0 | 0.0 | 0.00 | 0.05 | 0.00 | 75 | 1013.4 | |
| 20260508091521 | 41 | 0.0 | 0.0 | 0.00 | 0.05 | 0.00 | 75 | 1013.3 | |
| 20260508090020 | 41 | 0.0 | 0.0 | 0.00 | 0.05 | 0.00 | 77 | 1013.2 | |
| 20260508084517 | 41 | 0.0 | 0.0 | 0.00 | 0.06 | 0.00 | 77 | 1012.8 | |
| 20260508083015 | 42 | 0.0 | 0.0 | 0.00 | 0.06 | 0.00 | 75 | 1012.7 | |
| 20260508081513 | 42 | 0.0 | 0.0 | 0.00 | 0.06 | 0.00 | 75 | 1012.7 | |
| 20260508080010 | 43 | 0.0 | 0.0 | 0.00 | 0.06 | 0.00 | 75 | 1012.4 | |
| 20260508074509 | 43 | 0.0 | 0.0 | 0.00 | 0.06 | 0.00 | 78 | 1012.3 | |
| 20260508073007 | 43 | 0.0 | 0.0 | 0.00 | 0.06 | 0.00 | 78 | 1012.6 | |
| 20260508071507 | 44 | 0.0 | 0.0 | 0.00 | 0.06 | 0.00 | 77 | 1012.5 | |
| 20260508070010 | 44 | 0.0 | 0.0 | 0.00 | 0.06 | 0.00 | 76 | 1012.5 | |
| 20260508064614 | 45 | 0.0 | 0.0 | 0.00 | 0.06 | 0.00 | 77 | 1012.5 | |
| 20260508063059 | 45 | 0.0 | 0.0 | 0.00 | 0.06 | 0.00 | 77 | 1012.3 | |
| 20260508061605 | 45 | 0.0 | 0.0 | 0.00 | 0.06 | 0.00 | 77 | 1012.4 | |
| 20260508060057 | 45 | 0.0 | 0.0 | 0.00 | 0.06 | 0.00 | 79 | 1012.4 | |
| 20260508054557 | 45 | 0.0 | 0.0 | 0.00 | 0.07 | 0.00 | 79 | 1012.4 | |
| 20260508053104 | 46 | 0.0 | 0.0 | 0.00 | 0.07 | 0.00 | 79 | 1012.5 | |
| 20260508051554 | 46 | 0.0 | 0.0 | 0.00 | 0.07 | 0.00 | 80 | 1012.1 | |
| 20260508050059 | 46 | 0.0 | 0.0 | 0.00 | 0.07 | 0.00 | 80 | 1011.9 | |
| 20260508044548 | 46 | 0.0 | 0.0 | 0.00 | 0.07 | 0.00 | 80 | 1011.8 | |
| 20260508043059 | 47 | 0.0 | 0.0 | 0.00 | 0.07 | 0.00 | 80 | 1011.4 | |
| 20260508041546 | 47 | 0.0 | 0.0 | 0.00 | 0.07 | 0.00 | 80 | 1011.4 | |
| 20260508040043 | 47 | 0.0 | 0.0 | 0.00 | 0.07 | 0.00 | 81 | 1011.3 | |
| 20260508034541 | 47 | 0.0 | 0.0 | 0.00 | 0.09 | 0.07 | 80 | 1011.0 | |
| 20260508033039 | 47 | 0.0 | 0.0 | 0.00 | 0.09 | 0.07 | 80 | 1011.0 | |
| 20260508031550 | 48 | 0.0 | 0.0 | 0.00 | 0.09 | 0.07 | 79 | 1010.9 | |
| 20260508030049 | 48 | 0.0 | 0.0 | 0.00 | 0.09 | 0.07 | 79 | 1010.9 | |
| 20260508024537 | 48 | 0.0 | 0.0 | 0.00 | 0.11 | 0.07 | 79 | 1010.8 | |
| 20260508023042 | 48 | 0.0 | 0.0 | 0.00 | 0.11 | 0.07 | 79 | 1010.7 | |
| 20260508021538 | 47 | 0.0 | 0.0 | 0.00 | 0.11 | 0.07 | 79 | 1010.5 | |
| 20260508020035 | 47 | 0.0 | 0.0 | 0.00 | 0.11 | 0.07 | 82 | 1010.5 | |
| 20260508014534 | 47 | 0.0 | 0.0 | 0.00 | 0.11 | 0.07 | 80 | 1010.3 | |
| 20260508013033 | 47 | 0.0 | 0.0 | 0.00 | 0.11 | 0.07 | 82 | 1009.9 | |
| 20260508011530 | 48 | 0.0 | 0.0 | 0.00 | 0.11 | 0.07 | 81 | 1009.5 | |
| 20260508010029 | 48 | 0.0 | 0.0 | 0.00 | 0.11 | 0.07 | 80 | 1009.2 | |
| 20260508004528 | 49 | 0.0 | 0.0 | 0.00 | 0.11 | 0.07 | 78 | 1009.2 | |
| 20260508003023 | 50 | 0.0 | 0.0 | 0.00 | 0.11 | 0.07 | 77 | 1009.3 | |
| 20260508001523 | 50 | 0.0 | 0.0 | 0.00 | 0.11 | 0.07 | 78 | 1008.9 | |
| 20260508000023 | 51 | 0.0 | 0.0 | 0.00 | 0.11 | 0.07 | 74 | 1009.0 | |
| 20260507234524 | 51 | 0.0 | 0.0 | 0.00 | 0.11 | 0.07 | 74 | 1008.8 | |
| 20260507233023 | 52 | 0.0 | 0.0 | 0.00 | 0.11 | 0.07 | 73 | 1008.8 | |
| 20260507231526 | 53 | 0.0 | 0.0 | 0.00 | 0.11 | 0.07 | 75 | 1008.5 | |
| 20260507230022 | 53 | 0.0 | 0.0 | 0.00 | 0.11 | 0.07 | 75 | 1008.3 | |
| 20260507224518 | 55 | 0.0 | 0.0 | 0.00 | 0.11 | 0.07 | 75 | 1008.3 | |
| 20260507223018 | 55 | 0.0 | 0.0 | 0.00 | 0.11 | 0.07 | 76 | 1008.1 | |
| 20260507221518 | 55 | 0.0 | 0.0 | 0.00 | 0.11 | 0.07 | 77 | 1007.9 | |
| 20260507220015 | 55 | 0.0 | 0.0 | 0.00 | 0.11 | 0.07 | 80 | 1008.0 | |
| 20260507214514 | 55 | 0.0 | 0.0 | 0.00 | 0.11 | 0.07 | 83 | 1007.8 | |
| 20260507213019 | 56 | 0.0 | 0.0 | 0.00 | 0.11 | 0.07 | 81 | 1007.6 | |
| 20260507211512 | 56 | 0.0 | 0.0 | 0.00 | 0.11 | 0.07 | 83 | 1007.5 | |
| 20260507210012 | 56 | 0.0 | 0.0 | 0.00 | 0.11 | 0.07 | 83 | 1007.5 | |
| 20260507204511 | 57 | 0.0 | 0.0 | 0.00 | 0.11 | 0.07 | 85 | 1007.4 | |
| 20260507203010 | 56 | 0.0 | 0.0 | 0.00 | 0.11 | 0.07 | 90 | 1007.1 | |
| 20260507201511 | 56 | 0.0 | 0.0 | 0.00 | 0.11 | 0.07 | 85 | 1006.9 | |
| 20260507200008 | 57 | 0.0 | 0.0 | 0.00 | 0.11 | 0.07 | 90 | 1007.2 | |
| 20260507194506 | 56 | 0.0 | 0.0 | 0.00 | 0.11 | 0.07 | 95 | 1007.4 | |
| 20260507193006 | 54 | 0.0 | 0.0 | 0.02 | 0.11 | 0.07 | 97 | 1007.4 | |
| 20260507191505 | 52 | 0.0 | 0.0 | 0.03 | 0.11 | 0.07 | 98 | 1007.6 | |
| 20260507190006 | 51 | 0.0 | 0.0 | 0.04 | 0.12 | 0.07 | 97 | 1007.8 | |
| 20260507184504 | 50 | 0.0 | 0.0 | 0.04 | 0.12 | 0.07 | 96 | 1007.8 | |
| 20260507183006 | 50 | 0.0 | 0.0 | 0.02 | 0.10 | 0.05 | 96 | 1008.0 | |
| 20260507181501 | 50 | 0.0 | 0.0 | 0.00 | 0.08 | 0.03 | 95 | 1007.9 | |
| 20260507180001 | 51 | 0.0 | 0.0 | 0.00 | 0.08 | 0.03 | 93 | 1007.8 | |
| 20260507174558 | 51 | 0.0 | 0.0 | 0.00 | 0.08 | 0.03 | 92 | 1007.9 | |
| 20260507173057 | 52 | 0.0 | 0.0 | 0.00 | 0.08 | 0.03 | 92 | 1007.7 | |
| 20260507171554 | 53 | 0.0 | 0.0 | 0.00 | 0.08 | 0.03 | 91 | 1007.8 | |
| 20260507170055 | 54 | 0.0 | 0.0 | 0.00 | 0.08 | 0.03 | 92 | 1007.8 | |
| 20260507164608 | 54 | 0.0 | 0.0 | 0.00 | 0.09 | 0.03 | 93 | 1007.6 | |
| 20260507163051 | 54 | 0.0 | 0.0 | 0.00 | 0.09 | 0.03 | 94 | 1007.6 | |
| 20260507161549 | 54 | 0.0 | 0.0 | 0.00 | 0.09 | 0.03 | 93 | 1007.9 | |
| 20260507160051 | 55 | 0.0 | 0.0 | 0.00 | 0.09 | 0.03 | 94 | 1008.1 | |
| 20260507154546 | 55 | 0.0 | 0.0 | 0.00 | 0.09 | 0.03 | 93 | 1007.9 | |
| 20260507153044 | 55 | 0.0 | 0.0 | 0.00 | 0.09 | 0.03 | 93 | 1008.0 | |
| 20260507151543 | 56 | 0.0 | 0.0 | 0.00 | 0.09 | 0.03 | 93 | 1008.1 | |
| 20260507150142 | 57 | 0.0 | 0.0 | 0.00 | 0.09 | 0.03 | 93 | 1007.9 | |
| 20260507144541 | 57 | 0.0 | 0.0 | 0.00 | 0.09 | 0.03 | 96 | 1008.0 | |
| 20260507143057 | 57 | 0.0 | 0.0 | 0.00 | 0.09 | 0.03 | 97 | 1007.9 | |
| 20260507141555 | 57 | 0.0 | 0.0 | 0.00 | 0.09 | 0.03 | 97 | 1007.9 | |
| 20260507140039 | 57 | 0.0 | 0.0 | 0.00 | 0.09 | 0.03 | 99 | 1007.7 | |
| 20260507134540 | 56 | 0.0 | 0.0 | 0.00 | 0.09 | 0.03 | 99 | 1007.7 | |
| 20260507133040 | 56 | 0.0 | 0.0 | 0.00 | 0.09 | 0.03 | 99 | 1007.3 | |
| 20260507131543 | 56 | 0.0 | 0.0 | 0.00 | 0.09 | 0.03 | 99 | 1008.5 | |
| 20260507130041 | 56 | 0.0 | 0.0 | 0.00 | 0.09 | 0.03 | 99 | 1008.5 | |
| 20260507124536 | 57 | 0.0 | 0.0 | 0.00 | 0.11 | 0.03 | 99 | 1008.9 | |
| 20260507123033 | 57 | 0.0 | 0.0 | 0.00 | 0.11 | 0.03 | 99 | 1008.6 | |
| 20260507121531 | 58 | 0.0 | 0.0 | 0.00 | 0.11 | 0.03 | 99 | 1008.9 | |
| 20260507120031 | 58 | 0.0 | 0.0 | 0.00 | 0.11 | 0.03 | 100 | 1008.9 | |
| 20260507114531 | 58 | 0.0 | 0.0 | 0.00 | 0.11 | 0.03 | 100 | 1008.2 | |
| 20260507113029 | 58 | 0.0 | 0.0 | 0.00 | 0.11 | 0.03 | 99 | 1008.1 | |
| 20260507111529 | 57 | 0.0 | 0.0 | 0.00 | 0.11 | 0.03 | 99 | 1008.4 | |
| 20260507110028 | 57 | 0.0 | 0.0 | 0.00 | 0.11 | 0.03 | 99 | 1008.0 | |
| 20260507104527 | 58 | 0.0 | 0.0 | 0.00 | 0.11 | 0.03 | 99 | 1007.7 | |
| 20260507103027 | 58 | 0.0 | 0.0 | 0.01 | 0.11 | 0.03 | 99 | 1007.8 |